Overview Statistics Trail Chart Weather Telemetry Raw packets
 

This is the latest recevied weather packets stored in our database for station/object KE5QKR. If no packets are shown the sender has not sent any weather packets the latest 10 day(s).

<< 28 29 30 31 32 33 34 >>
Time Temp. Humidity Pressure Rain* Wind** Luminosity Snow
1777786023 12.78° C 77% 1018 hPa 0 mm - 0 W/m² -
1777785720 12.78° C 77% 1018.1 hPa 0 mm - 0 W/m² -
1777785415 12.78° C 77% 1018.1 hPa 0 mm - 0 W/m² -
1777785113 12.78° C 77% 1018.1 hPa 0 mm - 0 W/m² -
1777784809 13.33° C 75% 1018.1 hPa 0 mm - 0 W/m² -
1777784506 12.78° C 76% 1017.9 hPa 0 mm - 0 W/m² -
1777784203 12.78° C 78% 1017.8 hPa 0 mm - 0 W/m² -
1777783901 13.33° C 75% 1017.8 hPa 0 mm - 0 W/m² -
1777783597 13.33° C 74% 1018 hPa 0 mm - 0 W/m² -
1777783295 13.89° C 73% 1018.1 hPa 0 mm - 0 W/m² -
1777782991 13.89° C 73% 1017.8 hPa 0 mm - 0 W/m² -
1777782688 13.89° C 73% 1017.9 hPa 0 mm - 0 W/m² -
1777782385 13.89° C 72% 1018 hPa 0 mm - 0 W/m² -
1777782081 13.89° C 72% 1017.6 hPa 0 mm - 0 W/m² -
1777781777 13.89° C 73% 1017.7 hPa 0 mm - 0 W/m² -
1777781475 13.89° C 73% 1017.9 hPa 0 mm - 0 W/m² -
1777781172 13.89° C 72% 1017.9 hPa 0 mm - 0 W/m² -
1777780870 13.89° C 72% 1017.9 hPa 0 mm - 0 W/m² -
1777780566 13.89° C 72% 1017.6 hPa 0 mm - 0 W/m² -
1777780264 13.89° C 73% 1017.6 hPa 0 mm - 0 W/m² -
1777779961 13.89° C 73% 1017.6 hPa 0 mm - 0 W/m² -
1777779658 13.89° C 73% 1017.9 hPa 0 mm - 0 W/m² -
1777779355 13.89° C 73% 1017.6 hPa 0 mm - 0 W/m² -
1777779053 13.89° C 73% 1017.7 hPa 0 mm - 0 W/m² -
1777778751 13.33° C 74% 1017.4 hPa 0 mm - 0 W/m² -

* Rain latest hour (hover to see other rain measurements)
** Current wind speed in m/s (hover to see current wind gust speed)